Weather History for KPYX - July, 2013

Change the Weather History Date:

Thursday, July 11, 2013

  Actual Average Record
Temperature  
Mean Temperature 82 °F -  
Max Temperature 97 °F 94 °F 105 °F (1970)
Min Temperature 69 °F 65 °F 59 °F (2012)
Cooling Degree Days 18    
Growing Degree Days 32 (Base 50)    
Moisture  
Dew Point 62 °F    
Average Humidity 58    
Maximum Humidity 85    
Minimum Humidity 25    
Precipitation  
Precipitation 0.09 in - - ()
Sea Level Pressure  
Sea Level Pressure 30.05 in    
Wind  
Wind Speed 10 mph (ESE)    
Max Wind Speed 30 mph    
Max Gust Speed 40 mph    
Visibility 10 miles    
Events      
Averages and records for this station are not official NWS values.
T = Trace of Precipitation, MM = Missing Value Source: NWS Daily Summary

Daily Weather History Graph

Daily Weather History Graph

Search for Another Location

Airport or City:

Trip Planner

Search our weather history database for the weather conditions in past years. The results will help you decide how hot, cold, wet, or windy it might be!

Date:

Astronomy

Jul. 11, 2013 Rise Set
Actual Time 6:34 AM CDT 9:02 PM CDT
Civil Twilight 6:04 AM CDT 9:32 PM CDT
Nautical Twilight 5:27 AM CDT 10:09 PM CDT
Astronomical Twilight 4:46 AM CDT 10:49 PM CDT
Moon 9:47 AM CDT (7/11) 10:51 PM CDT (7/11)
Length of Visible Light 15h 27m
Length of Day
14h 28m
Waxing Crescent, 11% of the Moon is Illuminated
Jul 11
Waxing Crescent
Jul 15
First Quarter
Jul 22
Full
Jul 29
Last Quarter
Aug 6
New

Hourly Weather History & Observations

Time (CDT) Temp. Heat Index Dew Point Humidity Pressure Visibility Wind Dir Wind Speed Gust Speed Precip Events Conditions
12:15 AM 77.2 °F - 58.6 °F 53% 30.11 in 10.0 mi North 15.0 mph 25.3 mph N/A   Scattered Clouds
12:35 AM 73.4 °F - 63.1 °F 70% 30.12 in 10.0 mi North 24.2 mph - N/A   Clear
12:55 AM 72.5 °F - 63.9 °F 74% 30.12 in 10.0 mi North 21.9 mph 31.1 mph N/A   Clear
1:15 AM 71.6 °F - 64.0 °F 77% 30.15 in 10.0 mi NNW 18.4 mph 24.2 mph N/A   Clear
1:35 AM 70.7 °F - 63.5 °F 78% 30.12 in 10.0 mi NNW 19.6 mph 25.3 mph N/A   Clear
1:55 AM 70.3 °F - 63.7 °F 79% 30.13 in 10.0 mi NNW 15.0 mph - N/A   Clear
2:15 AM 70.0 °F - 63.5 °F 80% 30.12 in 10.0 mi North 11.5 mph - N/A   Clear
2:35 AM 69.6 °F - 63.7 °F 81% 30.12 in 10.0 mi North 10.4 mph - N/A   Clear
2:55 AM 69.4 °F - 64.0 °F 83% 30.11 in 10.0 mi NNW 8.1 mph - N/A   Clear
3:15 AM 69.3 °F - 64.6 °F 85% 30.10 in 10.0 mi NNW 6.9 mph - N/A   Clear
3:35 AM 69.8 °F - 64.4 °F 83% 30.10 in 10.0 mi West 3.5 mph - N/A   Clear
3:55 AM 69.4 °F - 64.8 °F 85% 30.07 in 10.0 mi ESE 3.5 mph - N/A   Clear
4:15 AM 69.8 °F - 65.1 °F 85% 30.07 in 10.0 mi North 9.2 mph - N/A   Scattered Clouds
4:35 AM 69.6 °F - 64.8 °F 84% 30.06 in 10.0 mi ENE 5.8 mph - N/A   Mostly Cloudy
4:55 AM 69.8 °F - 64.6 °F 83% 30.06 in 10.0 mi East 6.9 mph - N/A   Clear
5:15 AM 69.4 °F - 64.4 °F 84% 30.06 in 10.0 mi East 4.6 mph - N/A   Clear
5:35 AM 69.8 °F - 63.9 °F 81% 30.05 in 10.0 mi ENE 3.5 mph - N/A   Clear
5:55 AM 69.8 °F - 64.4 °F 83% 30.06 in 10.0 mi East 4.6 mph - N/A   Clear
6:15 AM 69.8 °F - 63.9 °F 81% 30.06 in 10.0 mi East 6.9 mph - N/A   Clear
6:35 AM 69.6 °F - 63.5 °F 81% 30.05 in 10.0 mi SE 8.1 mph - N/A   Clear
6:55 AM 70.0 °F - 63.1 °F 79% 30.07 in 10.0 mi NNE 4.6 mph - N/A   Clear
7:15 AM 69.8 °F - 63.5 °F 80% 30.08 in 10.0 mi Calm Calm - N/A   Clear
7:35 AM 70.7 °F - 63.1 °F 77% 30.07 in 10.0 mi ESE 5.8 mph - N/A   Clear
7:55 AM 71.1 °F - 63.5 °F 77% 30.08 in 10.0 mi ESE 4.6 mph - N/A   Clear
8:15 AM 71.8 °F - 63.5 °F 75% 30.09 in 10.0 mi Calm Calm - N/A   Clear
8:35 AM 71.8 °F - 65.1 °F 79% 30.10 in 10.0 mi Calm Calm - N/A   Clear
8:55 AM 72.0 °F - 64.8 °F 78% 30.11 in 10.0 mi WSW 4.6 mph - N/A   Clear
9:15 AM 73.4 °F - 63.3 °F 71% 30.11 in 10.0 mi SW 3.5 mph - N/A   Clear
9:35 AM 75.0 °F - 63.7 °F 68% 30.10 in 10.0 mi Calm Calm - N/A   Clear
9:55 AM 76.1 °F - 63.5 °F 65% 30.10 in 10.0 mi Calm Calm - N/A   Clear
10:15 AM 77.4 °F - 62.6 °F 60% 30.10 in 10.0 mi Calm Calm - N/A   Clear
10:35 AM 80.1 °F 81.5 °F 63.3 °F 56% 30.11 in 10.0 mi North 3.5 mph - N/A   Scattered Clouds
10:55 AM 81.1 °F 82.3 °F 62.8 °F 53% 30.10 in 10.0 mi Calm Calm - N/A   Mostly Cloudy
11:15 AM 81.0 °F 82.9 °F 65.3 °F 59% 30.11 in 10.0 mi NW 4.6 mph - N/A   Clear
11:35 AM 82.0 °F 83.6 °F 64.6 °F 55% 30.11 in 10.0 mi NNW 5.8 mph - N/A   Scattered Clouds
11:55 AM 84.0 °F 84.9 °F 62.8 °F 49% 30.10 in 10.0 mi Calm Calm - N/A   Scattered Clouds
12:15 PM 85.3 °F 86.1 °F 62.8 °F 47% 30.10 in 10.0 mi SE 6.9 mph - N/A   Clear
12:35 PM 87.8 °F 86.9 °F 58.6 °F 37% 30.09 in 10.0 mi ESE 6.9 mph - N/A   Clear
12:55 PM 88.7 °F 87.5 °F 57.6 °F 35% 30.09 in 10.0 mi ESE 6.9 mph - N/A   Clear
1:15 PM 89.8 °F 88.1 °F 56.3 °F 32% 30.08 in 10.0 mi ESE 8.1 mph - N/A   Clear
1:35 PM 89.2 °F 87.7 °F 56.5 °F 33% 30.08 in 10.0 mi East 6.9 mph - N/A   Clear
1:55 PM 89.4 °F 87.9 °F 56.8 °F 33% 30.07 in 10.0 mi ESE 5.8 mph - N/A   Clear
2:15 PM 90.7 °F 89.0 °F 56.1 °F 31% 30.06 in 10.0 mi ESE 5.8 mph 18.4 mph N/A   Clear
2:35 PM 90.1 °F 88.3 °F 55.9 °F 31% 30.05 in 10.0 mi SSE 6.9 mph - N/A   Clear
2:55 PM 92.3 °F 90.7 °F 56.8 °F 30% 30.04 in 10.0 mi SE 4.6 mph - N/A   Clear
3:15 PM 93.7 °F 92.3 °F 57.0 °F 29% 30.03 in 10.0 mi SE 4.6 mph - N/A   Clear
3:35 PM 93.2 °F 91.6 °F 56.3 °F 29% 30.03 in 10.0 mi SW 3.5 mph - N/A   Clear
3:55 PM 95.2 °F 93.6 °F 56.3 °F 27% 30.02 in 10.0 mi SE 3.5 mph - N/A   Clear
4:15 PM 94.6 °F 92.9 °F 55.6 °F 27% 30.00 in 10.0 mi SSE 6.9 mph - N/A   Clear
4:35 PM 95.2 °F 93.6 °F 55.9 °F 27% 29.99 in 10.0 mi SSE 6.9 mph 18.4 mph N/A   Clear
4:55 PM 95.5 °F 93.7 °F 55.6 °F 26% 29.99 in 10.0 mi East 9.2 mph - N/A   Clear
5:15 PM 95.9 °F 94.6 °F 56.5 °F 27% 29.98 in 10.0 mi SE 6.9 mph - N/A   Clear
5:35 PM 96.1 °F 94.5 °F 56.5 °F 26% 29.98 in 10.0 mi ESE 11.5 mph 16.1 mph N/A   Scattered Clouds
5:55 PM 94.6 °F 92.6 °F 55.2 °F 26% 29.97 in 10.0 mi ESE 10.4 mph 17.3 mph N/A   Scattered Clouds
6:15 PM 95.9 °F 93.9 °F 54.7 °F 25% 29.97 in 10.0 mi ESE 13.8 mph - N/A   Clear
6:35 PM 88.9 °F 88.3 °F 59.7 °F 37% 29.99 in 10.0 mi SE 27.6 mph 40.3 mph 0.07 in   Mostly Cloudy
6:55 PM 84.4 °F 84.8 °F 61.5 °F 46% 29.99 in 10.0 mi SSE 29.9 mph 39.1 mph 0.09 in   Mostly Cloudy
7:15 PM 82.0 °F 83.6 °F 64.6 °F 55% 29.99 in 10.0 mi SSE 19.6 mph 28.8 mph N/A   Scattered Clouds
7:35 PM 80.6 °F 82.0 °F 63.7 °F 56% 29.98 in 10.0 mi SSE 19.6 mph 25.3 mph N/A   Clear
7:55 PM 81.3 °F 82.6 °F 63.3 °F 54% 29.97 in 10.0 mi SSE 15.0 mph 19.6 mph N/A   Scattered Clouds
8:15 PM 81.9 °F 83.1 °F 63.0 °F 53% 29.97 in 10.0 mi SE 15.0 mph - N/A   Scattered Clouds
8:35 PM 79.9 °F - 63.5 °F 57% 29.97 in 10.0 mi SE 10.4 mph - N/A   Clear
8:55 PM 78.4 °F - 63.7 °F 60% 29.97 in 10.0 mi SE 11.5 mph - N/A   Clear
9:15 PM 78.4 °F - 63.5 °F 60% 29.98 in 10.0 mi SE 10.4 mph - N/A   Clear
9:35 PM 78.1 °F - 63.1 °F 60% 29.98 in 10.0 mi SE 10.4 mph - N/A   Clear
9:55 PM 77.0 °F - 62.6 °F 61% 29.99 in 10.0 mi SE 8.1 mph - N/A   Clear
10:15 PM 76.1 °F - 61.7 °F 61% 29.99 in 10.0 mi SSE 8.1 mph - N/A   Clear
10:35 PM 77.0 °F - 61.3 °F 58% 30.00 in 10.0 mi SSE 8.1 mph - N/A   Clear
10:55 PM 76.1 °F - 61.2 °F 60% 30.00 in 10.0 mi SSE 9.2 mph - N/A   Clear
11:15 PM 77.0 °F - 60.8 °F 57% 30.00 in 10.0 mi SE 6.9 mph - N/A   Clear
11:35 PM 78.4 °F - 61.7 °F 56% 30.01 in 10.0 mi SE 10.4 mph - N/A   Mostly Cloudy
11:55 PM 77.9 °F - 62.1 °F 58% 30.01 in 10.0 mi SSE 9.2 mph - N/A   Scattered Clouds